Marrakech, Morocco

7:48 AM WET on February 23, 2017 (GMT +0000)
Marrakech

Weather History for GMMX - March, 2013

Change the Weather History Date:

Friday, March 22, 2013

  Actual Average Record
Temperature  
Mean Temperature 62 °F -  
Max Temperature 74 °F 74 °F 93 °F (2001)
Min Temperature 50 °F 51 °F 41 °F (2007)
Degree Days  
Heating Degree Days 3    
Growing Degree Days 12 (Base 50)    
Moisture  
Dew Point 50 °F    
Average Humidity 70    
Maximum Humidity 100    
Minimum Humidity 26    
Precipitation  
Precipitation 0.00 in 0.05 in - ()
Sea Level Pressure  
Sea Level Pressure 29.95 in    
Wind  
Wind Speed 5 mph ()    
Max Wind Speed 15 mph    
Max Gust Speed -    
Visibility 5.6 miles    
Events      
Averages and records for this station are not official NWS values.
T = Trace of Precipitation, MM = Missing Value Source: Averaged Metar Reports

Daily Weather History Graph

Daily Weather History Graph

Search for Another Location

Airport or City:

Trip Planner

Search our weather history database for the weather conditions in past years. The results will help you decide how hot, cold, wet, or windy it might be!

Date:

Astronomy

Mar. 22, 2013 Rise Set
Actual Time 6:33 AM WET 6:45 PM WET
Civil Twilight 6:09 AM WET 7:09 PM WET
Nautical Twilight 5:40 AM WET 7:37 PM WET
Astronomical Twilight 5:12 AM WET 8:06 PM WET
Moon 2:14 PM WET (3/22) 3:08 AM WET (3/22)
Length of Visible Light 13h 00m
Length of Day
12h 11m
Waxing Gibbous, 75% of the Moon is Illuminated
Mar 22
Waxing Gibbous
Mar 27
Full
Apr 3
Last Quarter
Apr 10
New
Apr 18
First Quarter

Hourly Weather History & Observations

Time (WET) Temp. Dew Point Humidity Pressure Visibility Wind Dir Wind Speed Gust Speed Precip Events Conditions
12:00 AM 55 °F 53 °F 92% 29.99 in 4 mi West 3.5 mph - -   Clear
12:00 AM 55.4 °F 53.6 °F 94% 29.98 in 4.3 mi West 3.5 mph - N/A   Unknown
1:00 AM 55.4 °F 53.6 °F 94% 29.98 in 3.7 mi West 4.6 mph - N/A   Unknown
1:30 AM 55.4 °F 53.6 °F 94% 29.98 in 4.3 mi WSW 3.5 mph - N/A   Unknown
2:00 AM 55.4 °F 53.6 °F 94% 29.95 in 4.3 mi WSW 3.5 mph - N/A   Unknown
2:30 AM 53.6 °F 51.8 °F 94% 29.95 in 3.7 mi West 3.5 mph - N/A   Unknown
3:00 AM 54 °F 53 °F 95% 29.95 in 4 mi WSW 3.5 mph - -   Clear
3:00 AM 53.6 °F 53.6 °F 100% 29.95 in 3.7 mi WSW 3.5 mph - N/A   Unknown
3:30 AM 53.6 °F 51.8 °F 94% 29.95 in 3.1 mi West 3.5 mph - N/A   Unknown
4:00 AM 55.4 °F 55.4 °F 100% 29.95 in 3.7 mi West 5.8 mph - N/A   Unknown
4:30 AM 55.4 °F 53.6 °F 94% 29.95 in 3.7 mi West 8.1 mph - N/A   Scattered Clouds
5:00 AM 55.4 °F 53.6 °F 94% 29.98 in 5.6 mi West 6.9 mph - N/A   Scattered Clouds
5:30 AM 53.6 °F 53.6 °F 100% 29.98 in 5.6 mi West 9.2 mph - N/A   Scattered Clouds
6:00 AM 52 °F 51 °F 95% 30.00 in 6 mi West 6.9 mph - -   Partly Cloudy
6:00 AM 51.8 °F 51.8 °F 100% 29.98 in 6.2 mi West 8.1 mph - N/A   Scattered Clouds
6:30 AM 51.8 °F 51.8 °F 100% 30.01 in 4.3 mi WSW 4.6 mph - N/A   Scattered Clouds
7:00 AM 51.8 °F 50.0 °F 94% 30.01 in 3.7 mi SW 3.5 mph - N/A   Scattered Clouds
7:30 AM 55.4 °F 51.8 °F 88% 30.01 in 6.2 mi SSW 4.6 mph - N/A   Scattered Clouds
8:00 AM 55.4 °F 51.8 °F 88% 30.01 in 6.2 mi SW 4.6 mph - N/A   Scattered Clouds
8:30 AM 57.2 °F 50.0 °F 77% 30.04 in 6.2 mi South 3.5 mph - N/A   Scattered Clouds
9:00 AM 62 °F 49 °F 53% 30.01 in 6 mi SW 3.5 mph - -   Partly Cloudy
9:00 AM 60.8 °F 50.0 °F 68% 30.04 in 6.2 mi Variable 2.3 mph - N/A   Scattered Clouds
9:30 AM 64.4 °F 48.2 °F 56% 30.04 in 6.2 mi Variable 2.3 mph - N/A   Scattered Clouds
10:00 AM 64.4 °F 50.0 °F 59% 30.01 in 6.2 mi SE 4.6 mph - N/A   Scattered Clouds
10:30 AM 66.2 °F 48.2 °F 52% 30.01 in 6.2 mi SE 3.5 mph - N/A   Scattered Clouds
11:00 AM 69.8 °F 48.2 °F 46% 30.01 in 6.2 mi Variable 1.2 mph - N/A   Scattered Clouds
11:30 AM 69.8 °F 46.4 °F 43% 29.98 in 6.2 mi Variable 2.3 mph - N/A   Scattered Clouds
12:00 PM 71 °F 46 °F 30% 29.91 in 6 mi NNE 3.5 mph - -   Partly Cloudy
12:00 PM 71.6 °F 46.4 °F 41% 29.95 in 6.2 mi Variable 3.5 mph - N/A   Scattered Clouds
12:30 PM 71.6 °F 46.4 °F 41% 29.95 in 6.2 mi Variable 3.5 mph - N/A   Scattered Clouds
1:00 PM 71.6 °F 44.6 °F 38% 29.95 in 6.2 mi NW 8.1 mph - N/A   Mostly Cloudy
1:30 PM 73.4 °F 44.6 °F 36% 29.92 in 6.2 mi Variable 4.6 mph - N/A   Mostly Cloudy
2:00 PM 73.4 °F 44.6 °F 36% 29.92 in 6.2 mi WNW 9.2 mph - N/A   Mostly Cloudy
2:30 PM 73.4 °F 44.6 °F 36% 29.92 in 6.2 mi West 10.4 mph - N/A   Mostly Cloudy
2:47 PM 73 °F 46 °F 26% 29.83 in 6 mi West 4.6 mph - -   Mostly Cloudy
3:00 PM 73.4 °F 46.4 °F 38% 29.89 in 6.2 mi West 4.6 mph - N/A   Mostly Cloudy
3:30 PM 69.8 °F 46.4 °F 43% 29.89 in 6.2 mi WNW 12.7 mph - N/A   Mostly Cloudy
4:00 PM 69.8 °F 46.4 °F 43% 29.89 in 6.2 mi WNW 10.4 mph - N/A   Mostly Cloudy
4:30 PM 69.8 °F 51.8 °F 53% 29.89 in 6.2 mi WNW 15.0 mph - N/A   Mostly Cloudy
5:00 PM 68.0 °F 53.6 °F 60% 29.89 in 6.2 mi WNW 15.0 mph - N/A   Mostly Cloudy
5:30 PM 66.2 °F 53.6 °F 64% 29.92 in 6.2 mi WNW 15.0 mph - N/A   Mostly Cloudy
5:47 PM 64 °F 53 °F 58% 29.90 in 6 mi WNW 11.5 mph - -   Mostly Cloudy
6:00 PM 64.4 °F 53.6 °F 68% 29.92 in 6.2 mi WNW 11.5 mph - N/A   Mostly Cloudy
6:30 PM 62.6 °F 53.6 °F 72% 29.92 in 6.2 mi WNW 11.5 mph - N/A   Mostly Cloudy
7:00 PM 62.6 °F 53.6 °F 72% 29.92 in 6.2 mi WNW 11.5 mph - N/A   Mostly Cloudy
7:30 PM 60.8 °F 51.8 °F 72% 29.92 in 6.2 mi West 11.5 mph - N/A   Mostly Cloudy
8:00 PM 60.8 °F 51.8 °F 72% 29.95 in 6.2 mi WNW 11.5 mph - N/A   Mostly Cloudy
8:30 PM 60.8 °F 50.0 °F 68% 29.95 in 6.2 mi NW 9.2 mph - N/A   Mostly Cloudy
9:00 PM 60 °F 49 °F 58% 29.93 in 6 mi NW 9.2 mph - -   Mostly Cloudy
9:00 PM 60.8 °F 50.0 °F 68% 29.95 in 6.2 mi NW 9.2 mph - N/A   Mostly Cloudy
9:30 PM 60.8 °F 50.0 °F 68% 29.95 in 6.2 mi NW 6.9 mph - N/A   Mostly Cloudy
10:00 PM 59.0 °F 50.0 °F 72% 29.95 in 6.2 mi NW 8.1 mph - N/A   Mostly Cloudy
10:30 PM 59.0 °F 51.8 °F 77% 29.92 in 6.2 mi NW 8.1 mph - N/A   Mostly Cloudy
11:00 PM 59.0 °F 51.8 °F 77% 29.92 in 6.2 mi WNW 5.8 mph - N/A   Mostly Cloudy
11:30 PM 57.2 °F 51.8 °F 82% 29.92 in 6.2 mi West 11.5 mph - N/A   Mostly Cloudy